Home > Time Zones > World Clock > Weather > Ghana > Accra > Past weeks

Flag for Ghana Weather past 2 weeks in Accra, Ghana

Now
82 °F

Passing clouds.


Feels Like: 92 °F
Forecast: 82 / 89 °F
Wind: 12 mph from Southwest

Location: Accra Airport

Current Time: Mar 30, 2015 at 12:14:49 AM

Latest Report: Mar 29, 2015 at 10:00 PM


Visibility: N/A

Pressure: 29.89 "Hg

Humidity: 89%

Dew point: 79 °F

Location of AccraLocation

Historic Weather in Accra — Graph

°F

Accra temperature yesterday

Maximum temperature yesterday: 90 °F (at 1:00 PM)
Minimum temperature yesterday: 79 °F (at 5:00 AM)
Average temperature yesterday: 83 °F

Past Weeks' High & Low Weather Summary

 TemperatureHumidityPressure
High93 °F (Mar 15, 12:00 PM)100% (Mar 16, 12:01 AM)29.98 "Hg (Mar 16, 12:01 AM)
Low70 °F (Mar 16, 12:01 AM)53% (Mar 19, 1:00 PM)29.68 "Hg (Mar 15, 3:00 PM)
Average83 °F81%29.82 "Hg
* Reported Mar 14 10:00 PM — Mar 29 10:00 PM, Accra, Weather by CustomWeather, © 2015

Note: Actual official high and low records may vary slightly from our data, if they occured in-between our weather recording intervals... More about our weather records

Advertising

Accra weather history for previous 24 hours

 ConditionsComfort  
Time TempWeatherWind HumidityBarometerVisibility
10:00 PM
Sun, Mar 29
82 °FPassing clouds.12 mph89%29.89 "HgN/A
9:00 PM84 °FPassing clouds.15 mph84%29.89 "HgN/A
8:00 PM84 °FPassing clouds.10 mph84%29.89 "HgN/A
7:00 PM84 °FPassing clouds.15 mph79%29.86 "HgN/A
6:00 PM84 °FPassing clouds.16 mph84%29.83 "HgN/A
5:00 PM86 °FPassing clouds.17 mph75%29.80 "HgN/A
3:00 PM88 °FPassing clouds.17 mph62%29.80 "HgN/A
2:00 PM90 °FPassing clouds.16 mph63%29.80 "HgN/A
1:00 PM90 °FPassing clouds.13 mph67%29.83 "HgN/A
9:00 AM84 °FSunny.14 mph74%29.89 "Hg10 mi
8:00 AM81 °FSunny.12 mph84%29.89 "Hg10 mi
7:00 AM79 °FPassing clouds.9 mph94%29.86 "HgN/A
6:00 AM79 °FScattered clouds.10 mph94%29.83 "HgN/A
5:00 AM79 °FPassing clouds.10 mph94%29.83 "HgN/A
4:00 AM81 °FPassing clouds.8 mph89%29.83 "HgN/A
3:00 AM81 °FPartly cloudy.9 mph89%29.83 "HgN/A
2:00 AM81 °FPassing clouds.9 mph89%29.86 "HgN/A
1:00 AM81 °FPassing clouds.9 mph89%29.86 "HgN/A
12:00 AM82 °FClear.10 mph84%29.92 "Hg10 mi
Weather by CustomWeather, © 2015

See weather overviewHow to use our weather pages